Regional Weather Roundup
Issued by NWS

Home | Current Version | Previous Version | Text Only | Print | Product List | Glossary Off
Versions: 1 2 3 4 5 6 7 8 9 10 11 12 13 14 15 16 17 18 19 20 21 22 23 24 25 26 27 28 29 30 31 32 33 34 35 36 37 38 39 40 41 42 43 44 45 46 47 48 49 50

085
ASUS45 KSLC 031310
RWRUT

UTAH REGIONAL WEATHER ROUNDUP
NATIONAL WEATHER SERVICE SALT LAKE CITY UT
600 AM MST SAT DEC 03 2016

UTZ001>011-023>025-031400-

NORTHERN UTAH

CITY           SKY/WX    TMP DP  RH WIND       PRES   REMARKS
BRIGHAM CITY     N/A     28  23  79 N5        30.26R WCI  23
HILL AFB       CLOUDY    21  14  75 SE9       30.23F WCI  11
LOGAN          CLOUDY   N/A N/A N/A N5        30.24R
OGDEN          CLOUDY    23  16  74 S9        30.23F WCI  13
SALT LAKE CITY MOCLDY    27  19  72 SE6       30.25F WCI  20
TOOELE VALLEY  PTCLDY    23  19  86 S17       30.24F WCI   9
WENDOVER       CLOUDY    27  16  63 NE9       30.25S WCI  17
HEBER CITY     CLOUDY    12   9  85 CALM      30.23F
WEST JORDAN    CLOUDY    25  23  91 S12       30.24F WCI  15

$$

UTZ011>015-024>027-031400-

CENTRAL/NORTHEAST UTAH

CITY           SKY/WX    TMP DP  RH WIND       PRES   REMARKS
PROVO AIRPORT  MOCLDY    22  15  75 SE7       30.28F WCI  13
MOAB/CANYONLAN CLEAR     21  14  74 CALM      30.20F
DELTA          PTCLDY    16  14  93 E3        30.26F
PRICE          CLEAR     17   9  70 CALM      30.16F
RICHFIELD      PTCLDY    14  12  92 N3        30.26S
ROOSEVELT      CLEAR     18  12  79 N6        30.23F WCI   9
VERNAL         CLOUDY    17  11  77 CALM      30.20F

$$

UTZ013>016-019>022-027-031400-

SOUTHERN UTAH

CITY           SKY/WX    TMP DP  RH WIND       PRES   REMARKS
BRYCE CANYON   NOT AVBL
CEDAR CITY     PTCLDY    13   8  81 E3        30.21S
MILFORD        CLEAR     14  10  84 S6        30.24F WCI   5
ST GEORGE      MOSUNNY   30  16  55 CALM      30.25R
HANKSVILLE     CLEAR     18  12  79 CALM      30.26R
KANAB          CLEAR     27  12  54 N10       30.22R WCI  17
BLANDING       CLEAR     22  16  75 CALM      30.20R

$$

REGIONAL REPORTS     COLORADO/ARIZONA

CITY           SKY/WX    TMP DP  RH WIND       PRES   REMARKS
CRAIG, CO      CLOUDY    10   5  80 CALM      30.18F
GRAND JUNCTION CLOUDY    20  16  84 CALM      30.21R
RIFLE, CO      CLOUDY    19  12  74 W7        30.22R WCI  10
MONTROSE, CO   CLOUDY    25  20  81 SE3       30.22R
CORTEZ, CO     CLOUDY    22  20  92 E7        30.13R WCI  13
COLORADO CITY    N/A     21  18  86 SE5       30.19S WCI  15
PAGE, AZ       CLEAR     28  10  46 CALM      30.17R
GRAND CANYON   CLEAR    N/A N/A N/A NE8       30.11R
KINGMAN, AZ    CLEAR     32  12  43 E13       30.13R WCI  22
FLAGSTAFF, AZ  CLEAR     24  14  65 NE17      30.04S WCI  11

$$

REGIONAL REPORTS    NEVADA/IDAHO/WYOMING

CITY           SKY/WX    TMP DP  RH WIND       PRES   REMARKS
LAS VEGAS, NV  CLEAR     44   9  23 N12G25    30.21F
ELY, NY        CLEAR      5   0  79 S15       30.23S WCI -13
ELKO, NV       CLOUDY    22  15  75 SW5       30.28R WCI  16
POCATELLO, ID  CLOUDY    30  18  60 SW13      30.20R WCI  20
BURLEY, ID     CLOUDY    30  19  63 SW6       30.21R WCI  24
FORT BRIDGER,  PTSUNNY   19   9  64 W12       30.12S WCI   6
EVANSTON, WY   CLOUDY    13   7  77 SW14      30.12F WCI  -2
ROCK SPRINGS,  CLOUDY    15   7  70 SW21      30.08S WCI  -2

$$




USA.gov is the U.S. government's official web portal to all federal, state and local government web resources and services.